STARLINK-2040 (47656 NORAD) Tracking and Keplerian Element Data
This shows tracking and keplerian element data for the satellite.
Feedback or suggestion? Click here.
Element | Value |
Catalog | 47656 |
Name | STARLINK-2040 |
Epoch Orbit | 235 |
Epoch Day | 57.16667824 |
Epoch Year | 2021 |
RAAN | 52.0342 |
Inclination | 53.0495 |
Eccentricity | 0.0001294 |
Argument of Perigee | 88.5594 |
Mean Anonmoly | 166.0244 |
Mean Motion | 15.86134007 |
Decay Rate | 0.00073495 |
L1 | 1 47656U 21012AN 21057.16667824 .00073495 00000-0 29075-3 0 9993 |
L2 | 2 47656 53.0495 52.0342 0001294 88.5594 166.0244 15.86134007 2355 |
Live tracking and technical data element details for STARLINK-2040 (NORAD 47656). STARLINK-2040 can be tracked NOW for your location showing map with azimuth and elevation plus other details from your city location.
Track the satellite on the map from your city or location and see movement details for azimuth, elevation, latitude, longitude, range, height, and movement on the map or in text.
IsCatalogInMostPopularTable: catalog: 47656, numindb: 1
Update: records affected: 1
GetName: 47656 STARLINK-2040
Hit Count: updated at: Fri, 26 Feb 2021 09:41:00 GMT